Retour au catalogue

HULIANWANG DIGUI-128

ActifCommunicationsLEO
NORAD 67236·PAYLOAD·🇨🇳 China

Lancé Dec 25, 2025 depuis Wenchang Space Launch Site

Loading…

Prochains Passages (prochaines 24 heures)

TLE

FraisSource: Space-Track

Époque: Sep 13, 2026, 21:34 UTC

1 67236U 25311A   26256.89871308 -.00000081  00000-0  93732-4 0  9999
2 67236  50.0077 157.4126 0000279 305.9772  54.1075 13.29326993 35144

Suivez HULIANWANG DIGUI-128 en temps réel avec AllMySat

Download on the App Store